Weather

Vsebine: Paragliding sitesCurrent conditionsCurrent conditions (amateur)Radar rainfal imageMeteo stationsPanoramic cameras


Current conditions (official report)

Show amateur stations

Click on a specific station to see its location

Location Weather conditions Temperature Wind Air pressure Last updated Geopedia
    °C direction speed (m/s) gusts (m/s) hPa    
Babno Polje 1   - - 2018-11-21 19:04:00
Babno Polje (756 m) 5   - - 2016-01-12 07:40:00
Bilje Nova Gorica 8   - - 1017 2018-11-21 19:04:00
Bilje pri Novi Gorici 8   1 - 1016 2018-11-21 18:42:00
Blegoš 0   - - 2018-11-21 19:02:00
Bohinjska Češnjica 1   - - 2018-11-21 19:02:00
Boršt Gorenja vas 1   - 1 1019 2018-11-21 18:36:00
Bovec 3   - 1 1018 2018-11-21 18:38:00
Breginj 4   - - 2018-11-21 19:02:00
Bukovski vrh 1   - - 2018-11-21 19:04:00
Celje 4   1 1 1019 2018-11-21 19:04:00
Cerkniško jezero 1   - - 2018-11-21 19:05:00
Črnomelj 4   - - 1019 2018-11-21 18:42:00
Davča 0   - - 2018-11-21 19:02:00
Dobliče Črnomelj 4   - - 1019 2018-11-21 19:03:00
Dolenje Ajdovščina 8   1 4 2018-11-21 19:05:00
Gačnik 4   - 1 2018-11-21 19:04:00
Godnje 6   3 4 2018-11-21 19:02:00
Gornji Grad 1   - - 2018-11-21 19:02:00
Hočko Pohorje 1   - - 2018-11-21 19:04:00
Hrastnik 4   - - 1019 2018-11-21 18:36:00
Idrija 2   - - 2018-11-21 19:04:00
Ilirska Bistrica 4   2 4 2018-11-21 18:36:00
Iskrba 1   - - 2018-11-21 19:02:00
Jeronim 1   - - 2018-11-21 19:04:00
Jeruzalem 3   - - 2018-11-21 19:04:00
Jezersko 0   - - 2018-11-21 19:03:00
Juršče   - - 2016-09-13 14:33:00
Kamniška Bistrica 2   - - 2018-11-21 19:04:00
Kanin -1   - - 2018-11-21 19:04:00
Katarina nad Ljubljano 1   - - 2018-11-21 13:42:00
Kočevje 1   - 1 2018-11-21 19:05:00
Koper Kapitanija 11   1 2 1016 2018-11-21 18:35:00
Korensko sedlo -1   - - 2018-11-21 19:04:00
Kraj. park Goričko 3   1 2 2018-11-21 18:34:00
Kranj 3   - - 2018-11-21 19:04:00
Kredarica -4   1 2 2018-11-21 19:04:00
Krn 1   - - 2018-11-21 19:04:00
Krško 5   1 2 1020 2018-11-21 18:41:00
Krvavec 2   - - 2018-11-21 19:04:00
Kubed 9   - - 2018-11-21 19:04:00
Kum 0   3 4 2018-11-21 19:04:00
Lendava 5   1 1 1019 2018-11-21 18:38:00
Let. E. Rusjana Maribor 4   - 1 1019 2018-11-21 19:05:00
Let. J. Pučnika Lj. 0   2 3 1011 2015-11-26 11:03:00
Let. J. Pučnika Ljubljana 3   1 2 1019 2018-11-21 19:03:00
Letališče Cerklje ob Krki 4   - 1 1019 2018-11-21 19:03:00
Letališče Edvarda Rusjana Maribor 4   1 - 1019 2018-11-21 18:42:00
Letališče Jožeta Pučnika Ljubljana 3   2 - 1019 2018-11-21 18:42:00
Letališče Lesce 2   1 1 1019 2018-11-21 19:05:00
Letališče Portorož 10   2 2 1016 2018-11-21 19:02:00
Lisca 0   2 2 2018-11-21 19:04:00
Lisca (943 m) 9   5 12 2016-03-29 14:02:00
Litija 4   - - 2018-11-21 19:04:00
Ljubljana 4   - 1 1019 2018-11-21 19:04:00
Logarska dolina 1   - - 2018-11-21 19:04:00
Logatec 1   - - 2018-11-21 19:04:00
Luka Koper 10   1 3 2018-11-21 18:35:00
Malkovec 3   1 1 1020 2018-11-21 18:38:00
Maribor 4   1 2 2018-11-21 19:03:00
Maribor - Tabor 4   - 2 2018-11-21 18:36:00
Marinča vas 2   - - 2018-11-21 19:04:00
Metlika 4   - - 2018-11-21 19:04:00
Mežica 2   - - 2018-11-21 19:04:00
Miklavž na Gorjancih 0   - - 2018-11-21 19:04:00
Murska Sobota 5   2 2 1019 2018-11-21 19:04:00
Nanos 2   3 4 2018-11-21 19:04:00
Nova Gorica 8   - 1 2018-11-21 18:35:00
Nova vas - Bloke 0   - - 2018-11-21 19:04:00
Novo mesto 4   1 1 1019 2018-11-21 19:04:00
Osilnica 2   - - 2018-11-21 19:03:00
Otlica 3   3 5 2018-11-21 19:04:00
Otlica (965 m) 7   4 7 2016-03-31 08:24:00
Park Škocj. jame 5   1 2 1017 2018-11-21 19:02:00
Pasja ravan -1   2 3 2018-11-21 19:03:00
Pavličevo sedlo 0   - - 2018-11-21 19:03:00
Piran-ocean. boja 16   3 6 2018-11-12 21:09:00
Planina pod Golico 0   - - 2018-11-21 19:03:00
Podčetrtek 5   - - 1018 2018-11-21 18:36:00
Podnanos 7   2 3 2018-11-21 19:03:00
Postojna 2   4 7 1018 2018-11-21 19:03:00
Predel 0   - - 2018-11-21 19:03:00
Ptuj 4   - - 2018-11-21 19:03:00
Ptuj - Terme -2   2 3 2017-01-19 14:35:00
Radegunda 1   - - 2018-11-21 19:04:00
Radenci 4   - - 1020 2018-11-21 18:34:00
Rateče 0   2 - 2018-11-21 18:42:00
Rateče (864 m) 0   2 4 2018-11-21 19:04:00
Ratitovec 2   2 2 2018-11-21 19:03:00
Ravne na Koroškem 4   2 4 2018-11-21 18:38:00
Rogaška Slatina 4   - - 2018-11-21 19:03:00
Rogla 1   3 4 2018-11-21 19:03:00
Rogla (1492 m) -11   4 7 2016-01-18 10:32:00
Rudno polje 0   - 1 2018-11-21 19:03:00
Rudno polje (1347 m) -2   1 3 2015-10-20 07:36:00
Sevno 2   - - 2018-11-21 19:03:00
Slavnik 4   2 3 2018-11-21 19:03:00
Slovenj Gradec 3   2 - 2018-11-21 18:42:00
Slovenske Konjice 4   - - 2018-11-21 19:03:00
Sviščaki 4   - 1 2018-11-21 19:03:00
Šebreljski vrh -1   - - 2018-11-21 19:03:00
Šmartno pri Slovenj Gradcu 3   1 1 2018-11-21 19:03:00
Tatre 1   - - 2018-11-21 19:03:00
Tolmin - Volče 6   2 4 2018-11-21 19:03:00
Topol 1   - - 2018-11-21 19:03:00
Trebnje 3   - - 2018-11-21 19:03:00
Trije Kralji na Pohorju 1   - - 2018-11-21 19:03:00
Trojane - Limovce 1   2 2 1019 2018-11-21 19:03:00
Uršlja gora 2   3 3 2018-11-21 19:03:00
Vedrijan 7   - - 2018-11-21 19:03:00
Velenje 3   - - 2018-11-21 19:03:00
Velike Lašče 1   1 1 2018-11-21 19:03:00
Vogel 0   - 1 2018-11-21 19:03:00
Vojsko 0   - - 2018-11-21 13:42:00
Vrbanski plato -2   2 3 2016-12-07 11:23:00
Vrhnika 2   1 2 2018-11-21 19:03:00
Vršič -7   - - 2018-11-20 14:23:00
Zadlog 0   - - 2018-11-21 19:02:00
Zelenica 1   - - 2018-11-21 19:03:00
Zgornja Kapla 0   - 1 2018-11-21 19:03:00
Zgornja Radovna 0   - - 2018-11-21 19:03:00
Zgornja Sorica 0   - - 2018-11-21 19:03:00
Source: Slovenian Environmental Agency, meteo.si